Location: Sabalos
(43.2860°N, 0.1414°E)
Time: 04:43:59
(UTC+00:00)

IRIDIUM 104 - Pass Details

Date: 05 July 2020
Orbit: 776 x 779 km, 86.4° (Epoch: 06 August)

Event Time Altitude Azimuth Distance (km) Brightness Sun altitude
Exits shadow 23:23:21 56° 136° (SE) 923 4.4 -23.4°
Maximum altitude 23:24:11 65° 89° (E) 855 4.4 -23.4°
Drops below altitude 10° 23:29:22 10° 9° (N) 2,341 7.8 -23.6°
Sets 23:31:44 0° 6° (N) 3,273 8.9 -23.6°
